Baraboo, WI

10:06 AM CST on November 24, 2017 (GMT -0600)
Baraboo Wisconsin Dells

Weather History for KDLL - December, 2013

Change the Weather History Date:

Monday, December 23, 2013

  Actual Average Record
Temperature  
Mean Temperature 9 °F -  
Max Temperature 20 °F 28 °F 53 °F (2015)
Min Temperature -3 °F 9 °F -22 °F (1983)
Degree Days  
Heating Degree Days 56    
Moisture  
Dew Point 4 °F    
Average Humidity 81    
Maximum Humidity 96    
Minimum Humidity 69    
Precipitation  
Precipitation 0.00 in - - ()
Sea Level Pressure  
Sea Level Pressure 30.27 in    
Wind  
Wind Speed 5 mph (West)    
Max Wind Speed 12 mph    
Max Gust Speed -    
Visibility 5 miles    
Events Snow    
Averages and records for this station are not official NWS values.
T = Trace of Precipitation, MM = Missing Value Source: NWS Daily Summary

Daily Weather History Graph

Daily Weather History Graph

Search for Another Location

Airport or City:

Trip Planner

Search our weather history database for the weather conditions in past years. The results will help you decide how hot, cold, wet, or windy it might be!

Date:

Astronomy

Dec. 23, 2013 Rise Set
Actual Time 7:29 AM CST 4:26 PM CST
Civil Twilight 6:57 AM CST 4:59 PM CST
Nautical Twilight 6:20 AM CST 5:35 PM CST
Astronomical Twilight 5:46 AM CST 6:10 PM CST
Moon 10:47 PM CST (12/23) 10:45 AM CST (12/23)
Length of Visible Light 10h 02m
Length of Day
8h 56m
Waning Gibbous, 68% of the Moon is Illuminated
Dec 23
Waning Gibbous
Dec 25
Last Quarter
Jan 1
New
Jan 7
First Quarter
Jan 15
Full

Hourly Weather History & Observations

Time (CST) Temp. Windchill Dew Point Humidity Pressure Visibility Wind Dir Wind Speed Gust Speed Precip Events Conditions
12:15 AM 18.5 °F - 16.7 °F 93% 30.09 in 2.0 mi Calm Calm - N/A Snow Light Snow
12:35 AM 18.5 °F - 16.9 °F 93% 30.09 in 1.2 mi Calm Calm - N/A Snow Light Snow
12:55 AM 18.5 °F - 17.2 °F 95% 30.10 in 0.8 mi Calm Calm - N/A Snow Light Snow
1:15 AM 19.9 °F - 18.5 °F 94% 30.10 in 0.8 mi Calm Calm - N/A Snow Snow
1:35 AM 20.3 °F - 19.0 °F 95% 30.11 in 1.0 mi Calm Calm - N/A Snow Light Snow
1:55 AM 20.8 °F 14.4 °F 19.4 °F 94% 30.12 in 1.2 mi West 4.6 mph - N/A Snow Light Snow
2:15 AM 20.8 °F 14.4 °F 19.4 °F 94% 30.12 in 4.0 mi West 4.6 mph - N/A Snow Light Snow
2:35 AM 20.5 °F 11.7 °F 19.4 °F 96% 30.13 in 10.0 mi West 6.9 mph - N/A   Overcast
2:55 AM 19.4 °F 9.5 °F 18.1 °F 95% 30.14 in 10.0 mi West 8.1 mph - N/A   Overcast
3:15 AM 18.9 °F 8.0 °F 17.4 °F 94% 30.14 in 10.0 mi West 9.2 mph - N/A   Overcast
3:35 AM 18.0 °F 8.7 °F 16.2 °F 93% 30.14 in 10.0 mi WNW 6.9 mph - N/A   Overcast
3:55 AM 17.6 °F 9.3 °F 15.8 °F 93% 30.15 in 10.0 mi West 5.8 mph - N/A Snow Light Snow
4:15 AM 17.4 °F 9.1 °F 15.3 °F 91% 30.15 in 4.0 mi West 5.8 mph - N/A Snow Light Snow
4:35 AM 17.6 °F - 15.3 °F 91% 30.16 in 5.0 mi Calm Calm - N/A Snow Light Snow
4:55 AM 17.6 °F 8.2 °F 14.9 °F 89% 30.17 in 5.0 mi West 6.9 mph - N/A Snow Light Snow
5:15 AM 16.3 °F 6.7 °F 13.3 °F 88% 30.17 in 7.0 mi West 6.9 mph - N/A Snow Light Snow
5:35 AM 15.6 °F 4.0 °F 12.0 °F 86% 30.17 in 4.0 mi West 9.2 mph - N/A Snow Light Snow
5:55 AM 14.9 °F 4.0 °F 11.3 °F 86% 30.19 in 3.0 mi West 8.1 mph - N/A Snow Light Snow
6:15 AM 14.0 °F 1.2 °F 10.2 °F 85% 30.20 in 3.0 mi West 10.4 mph - N/A Snow Light Snow
6:35 AM 12.7 °F -0.4 °F 8.6 °F 84% 30.20 in 4.0 mi West 10.4 mph - N/A Snow Light Snow
6:55 AM 12.0 °F -1.3 °F 7.9 °F 83% 30.21 in 2.5 mi West 10.4 mph - N/A Snow Light Snow
7:15 AM 11.7 °F 1.1 °F 7.5 °F 83% 30.22 in 4.0 mi West 6.9 mph - N/A Snow Light Snow
7:35 AM 10.4 °F -3.3 °F 6.1 °F 83% 30.23 in 1.2 mi West 10.4 mph - N/A Snow Light Snow
7:55 AM 9.5 °F -2.6 °F 5.0 °F 82% 30.24 in 1.5 mi West 8.1 mph - N/A Snow Light Snow
8:15 AM 8.6 °F -3.7 °F 4.5 °F 83% 30.24 in 1.2 mi West 8.1 mph - N/A Snow Light Snow
8:35 AM 8.2 °F -1.8 °F 3.9 °F 83% 30.25 in 1.5 mi West 5.8 mph - N/A Snow Light Snow
8:55 AM 8.2 °F -4.1 °F 4.1 °F 83% 30.26 in 1.0 mi West 8.1 mph - N/A Snow Light Snow
9:15 AM 8.4 °F -2.8 °F 3.9 °F 82% 30.26 in 2.0 mi West 6.9 mph - N/A Snow Light Snow
9:35 AM 8.2 °F -3.0 °F 3.6 °F 81% 30.27 in 2.5 mi West 6.9 mph - N/A Snow Light Snow
9:55 AM 8.4 °F -3.9 °F 3.7 °F 81% 30.27 in 2.5 mi West 8.1 mph - N/A Snow Light Snow
10:15 AM 8.2 °F -4.1 °F 3.0 °F 79% 30.28 in 4.0 mi West 8.1 mph - N/A Snow Light Snow
10:35 AM 8.4 °F -2.8 °F 3.0 °F 79% 30.28 in 3.0 mi West 6.9 mph - N/A Snow Light Snow
10:55 AM 8.4 °F -5.7 °F 2.5 °F 77% 30.28 in 5.0 mi West 10.4 mph - N/A Snow Light Snow
11:15 AM 8.2 °F -3.0 °F 2.3 °F 77% 30.28 in 3.0 mi West 6.9 mph - N/A Snow Light Snow
11:35 AM 8.1 °F -5.3 °F 2.3 °F 77% 30.27 in 5.0 mi West 9.2 mph - N/A Snow Light Snow
11:55 AM 8.1 °F -5.3 °F 2.1 °F 77% 30.27 in 4.0 mi West 9.2 mph - N/A Snow Light Snow
12:15 PM 8.6 °F -3.7 °F 2.1 °F 75% 30.27 in 7.0 mi West 8.1 mph - N/A Snow Light Snow
12:35 PM 8.6 °F -2.6 °F 2.1 °F 75% 30.27 in 10.0 mi West 6.9 mph - N/A   Overcast
12:55 PM 10.2 °F -2.7 °F 2.7 °F 72% 30.27 in 10.0 mi West 9.2 mph - N/A   Overcast
1:15 PM 10.4 °F -1.5 °F 2.1 °F 69% 30.27 in 10.0 mi West 8.1 mph - N/A   Overcast
1:35 PM 9.7 °F -4.2 °F 1.2 °F 69% 30.27 in 10.0 mi West 10.4 mph - N/A   Mostly Cloudy
1:55 PM 9.5 °F -3.5 °F 1.0 °F 69% 30.27 in 10.0 mi West 9.2 mph - N/A   Scattered Clouds
2:15 PM 9.3 °F -1.7 °F 1.0 °F 69% 30.28 in 10.0 mi West 6.9 mph - N/A   Clear
2:35 PM 8.6 °F -4.7 °F 0.5 °F 70% 30.29 in 10.0 mi West 9.2 mph - N/A   Clear
2:55 PM 8.6 °F -2.6 °F 0.3 °F 69% 30.29 in 10.0 mi West 6.9 mph - N/A   Clear
3:15 PM 8.6 °F -1.3 °F 0.3 °F 69% 30.29 in 10.0 mi West 5.8 mph - N/A   Scattered Clouds
3:35 PM 8.6 °F -1.3 °F 0.5 °F 70% 30.30 in 10.0 mi West 5.8 mph - N/A   Mostly Cloudy
3:55 PM 7.7 °F -4.8 °F -0.2 °F 70% 30.32 in 10.0 mi West 8.1 mph - N/A   Overcast
4:15 PM 6.4 °F -3.9 °F -1.5 °F 70% 30.32 in 10.0 mi West 5.8 mph - N/A   Overcast
4:35 PM 5.2 °F -9.8 °F -2.2 °F 72% 30.34 in 10.0 mi West 10.4 mph - N/A   Overcast
4:55 PM 4.6 °F -9.5 °F -2.4 °F 73% 30.34 in 10.0 mi West 9.2 mph - N/A   Overcast
5:15 PM 3.7 °F -10.6 °F -3.1 °F 73% 30.34 in 10.0 mi West 9.2 mph - N/A Snow Light Snow
5:35 PM 3.4 °F -10.0 °F -3.3 °F 74% 30.35 in 10.0 mi West 8.1 mph - N/A Snow Light Snow
5:55 PM 2.8 °F -13.5 °F -4.0 °F 73% 30.36 in 10.0 mi West 11.5 mph - N/A   Overcast
6:15 PM 2.3 °F -12.4 °F -4.0 °F 75% 30.36 in 7.0 mi West 9.2 mph - N/A   Overcast
6:35 PM 1.8 °F -14.0 °F -4.9 °F 74% 30.37 in 5.0 mi West 10.4 mph - N/A   Haze
6:55 PM 1.0 °F -12.9 °F -5.1 °F 75% 30.38 in 4.0 mi West 8.1 mph - N/A Snow Light Snow
7:15 PM 0.9 °F -14.2 °F -5.1 °F 76% 30.38 in 4.0 mi West 9.2 mph - N/A Snow Light Snow
7:35 PM 0.5 °F -12.3 °F -5.1 °F 77% 30.39 in 4.0 mi West 6.9 mph - N/A Snow Light Snow
7:55 PM 0.5 °F -11.0 °F -4.9 °F 78% 30.39 in 2.0 mi West 5.8 mph - N/A Snow Light Snow
8:15 PM 0.5 °F -11.0 °F -4.5 °F 79% 30.39 in 2.0 mi West 5.8 mph - N/A Snow Light Snow
8:35 PM 0.5 °F -9.3 °F -4.2 °F 81% 30.39 in 2.0 mi West 4.6 mph - N/A Snow Light Snow
8:55 PM 0.5 °F -9.3 °F -4.2 °F 81% 30.39 in 1.8 mi West 4.6 mph - N/A Snow Light Snow
9:15 PM 0.5 °F -11.0 °F -4.2 °F 81% 30.39 in 1.5 mi West 5.8 mph - N/A Snow Light Snow
9:35 PM 0.3 °F -9.5 °F -4.2 °F 81% 30.39 in 0.8 mi West 4.6 mph - N/A Snow Light Snow
9:55 PM 0.3 °F -9.5 °F -4.0 °F 82% 30.39 in 0.8 mi West 4.6 mph - N/A Snow Snow
10:35 PM -0.9 °F - -5.1 °F 83% 30.39 in 1.2 mi Calm Calm - N/A Snow Light Snow
10:55 PM -1.5 °F - -5.4 °F 83% 30.39 in 1.0 mi Calm Calm - N/A Snow Light Snow
11:15 PM -1.7 °F -11.8 °F -5.4 °F 84% 30.40 in 2.5 mi West 4.6 mph - N/A Snow Light Snow
11:35 PM -2.2 °F -10.4 °F -6.0 °F 84% 30.41 in 3.0 mi West 3.5 mph - N/A Snow Light Snow
11:55 PM -3.1 °F -13.5 °F -6.7 °F 85% 30.40 in 4.0 mi West 4.6 mph - N/A Snow Light Snow